STARLINK-32253, 60733

Orbit data source: Space-Track

STARLINK-32253, 60733 is a payload satellite owned by SpaceX/Seattle (US) in LEO that was launched on Wed, 28 Aug 2024 UTC via an FALCON 9 launch vehicle from the Air Force Eastern Test Range (AFETR). Payload-class satellites include a variety of spacecraft equipped with specific instruments for various scientific and technological missions. These include communications satellites like Starlink; space stations such as the ISS; scientific satellites like the Hubble; Earth observation satellites from companies like Planet Labs, Umbra, and HawkEye 360; GPS; miniature CubeSats for education and research; and military/defense satellites.

Loading next visibility...
Identifier
60733, 2024-152P
Orbit
LEO
Country
Flag of USUS
Related business
Manufacturer
SpaceX/Seattle
Mission
Operational Commercial Communications
Bus & Motor
STARLINK V2M, Unknown motor
Mass
730 kg wet, ~700 kg dry
Launch date (UTC)
2024-08-28 (1 year ago)
Launch vehicle
FALCON 9
Launch site
Air Force Eastern Test Range (AFETR)
Object type
Payload
Rocket body
Debris
Shape & HBR
Box + 2 Pan, 17.7 m
Radar Cross Section
33.884 m², Large (>1 m²)

Expand to show TLE details & history
Last TLE update: 1 day ago

TLE from 1 day ago
0 STARLINK-32253
1 60733U 24152P   26033.49659810  .00001093  00000-0  49037-4 0  9999
2 60733  53.1600  71.8150 0001485  96.1175 263.9995 15.30201092 81415
Epoch: 2026-02-02T11:55Z
TLE epoch observation values (Epoch: 2026-02-02T11:55:06.075Z)
Latitude
-0.00004°
Longitude
120.34861°
Altitude
476.218 km
Speed
7.629 km/s
True Right ascension
04h 47m 15s
True Declination
0° 00' 00"
Sunlit
Object was in full shadow at epoch
Visualization orbit readout
Latitude
Unknown
Longitude
Unknown
Altitude
Unknown
Speed
Unknown
Apparent Right ascension
Unknown
Apparent Declination
Unknown
Sunlit
N/A
Visualization observer readout
Local Sidereal Time
13:50:22
Azimuth
Unknown
Elevation
Unknown
Doppler factor
Unknown
Orbital elements
Apogee altitude
476.486 km
Perigee altitude
474.45 km
Semi-major axis
6,853.605 km
Eccentricity
0.00015
Inclination
53.16°
RAAN
71.815°
Arg. of periapsis
96.1175°
True anomaly
263.98258°
Mean anomaly
263.9995°
Eccentric anomaly
263.99104°
Mean motion
3.82529 °/min
Orbital period
94.11 mins
BSTAR
0.000049037
Loading maneuver chart data...
Computing Atmospheric mass density...
Loading historical data...
Loading historical data...
Loading historical data...
Loading historical data...
Loading historical data...
Loading historical data...
Loading historical data...

Documentation

Showing up to 5 results
|